Wynyard / W.B. Needham Field

Jump to: basic info | weather | frequencies | runways | comments

Related pages: nearby airports | nearby navaids | notams | map

Basic information (top)

Codes: CYYO
Location: lon 51.809888, lat -104.169788, elev 1,740 ft / 530 m msl
Status: small_airport
Scheduled airline service: no
Links: Wikipedia Mobile

Weather (top)

Current conditions for Yorkton Municipal Airport 72nm (133km) ESE (rec'd 2014/09/17 21:00Z):

CYQV 172100Z AUTO 13008KT 100V170 9SM OVC018 11/06 A3005 RMK SLP190

Airport forecast for Yorkton Municipal Airport 72nm (133km) ESE (rec'd 2014/09/17 18:42Z):

TAF CYQV 171738Z 1718/1806 10012KT P6SM OVC012 
      TEMPO 1718/1720 OVC008 
     FM172000 13012KT P6SM BKN015 
      BECMG 1720/1722 SCT015 
     FM180100 15010KT P6SM SKC 
      RMK FCST BASED ON AUTO OBS. NXT FCST BY 180000Z

Frequencies (top)

Verify before use: may be inaccurate or out of date.

ATF: 123.2 MHz (ATF)

Runways (top)

09/27: 3,000 x 75 ft (914 x 23 m) — paved — lighted

Latest comments (top)

Wynyard Airport renamed W.B. Needham Field: The Wynyard Airport was renamed "W.B. ... [read]

More... (top)

See also NOTAMs and nearby airports and navaids, or visit the Wynyard / W.B. Needham Field page at the main OurAirports website..